Starlink 30784

operational
NORAD ID: 58156 Int'l Des: 2023-166 Owner: SPXS Country: US Constellation: starlink
LEOCIRCULAR

关于 Starlink 30784

正在加载描述...

实时位置

正在加载3D地球...

即将过境

高度历史

Altitude vs Time

uPlot chart will show altitude changes over time

两行轨道根数

1 58156U 23166G 25351.12494892 -.00000301 00000-0 19512-5 0 9996
2 58156 53.1597 243.4361 0001368 73.0604 287.0547 15.30197780120386
Epoch: Dec 17, 2025 • Age: 22 hours

当前状态

高度 480.9 km
速度 7.63 km/s
星下点 53.22°N, 142.41°W
发射日期 Oct 29, 2023
运行时间 2.1 years
类型 internet

技术详情

分类 Payload
质量 730.00 kg
干质量 700.00 kg
总质量 730.00 kg
长度 0.30 m
直径 4.10 m
跨度 29.00 m
形状 Box + pan
制造商 SPXS
平台类型 Starlink V2M
阶段状态 In Orbit
所有者/国家 SPXS/US

大型星座

Loading constellations...